Flag for Germany Weather past 2 weeks in Eberswalde, Brandenburg, Germany

Now
61 °F

Partly sunny.


Feels Like: 61 °F
Forecast: 53 / 76 °F
Wind: 9 mph from West

Location: Berlin-Tegel

Current Time: Aug 28, 2015 at 12:33:06 PM

Latest Report: Aug 28, 2015 at 11:50 AM


Visibility: N/A

Pressure: 30.04 "Hg

Humidity: 83%

Dew point: 55 °F

Location of EberswaldeLocation

Historic Weather in Eberswalde — Graph

°F

Eberswalde temperature yesterday

Maximum temperature yesterday: 82 °F (at 12:50 PM)
Minimum temperature yesterday: 63 °F (at 11:20 PM)
Average temperature yesterday: 71 °F

Past Weeks' High & Low Weather Summary

 TemperatureHumidityPressure
High93 °F (Aug 14, 2:50 PM)100% (Aug 16, 4:20 AM)30.30 "Hg (Aug 16, 4:20 AM)
Low54 °F (Aug 20, 6:20 AM)18% (Aug 21, 4:20 PM)29.68 "Hg (Aug 15, 2:20 AM)
Average71 °F60%29.95 "Hg
* Reported Aug 13 11:20 AM — Aug 28 11:20 AM, Eberswalde, Weather by CustomWeather, © 2015

Note: Actual official high and low records may vary slightly from our data, if they occured in-between our weather recording intervals... More about our weather records

Advertising

Eberswalde weather history for previous 24 hours

 ConditionsComfort  
Time TempWeatherWind HumidityBarometerVisibility
11:20 AM
Fri, Aug 28
61 °FPartly sunny.8 mph83%30.04 "HgN/A
10:50 AM61 °FPartly sunny.7 mph88%30.01 "HgN/A
10:20 AM59 °FPartly sunny.9 mph88%30.01 "HgN/A
9:50 AM59 °FBroken clouds.8 mph88%30.01 "HgN/A
9:20 AM59 °FBroken clouds.6 mph88%29.98 "HgN/A
8:50 AM57 °FPartly sunny.7 mph100%29.98 "HgN/A
8:20 AM57 °FPartly sunny.8 mph100%29.95 "HgN/A
7:50 AM57 °FDrizzle. Partly sunny.6 mph100%29.95 "HgN/A
7:20 AM57 °FPartly sunny.6 mph100%29.92 "HgN/A
6:50 AM59 °FLight rain. Passing clouds.6 mph94%29.92 "Hg5 mi
5:50 AM59 °FRain. Mostly cloudy.10 mph100%29.89 "Hg4 mi
5:20 AM61 °FRain. Mostly cloudy.7 mph100%29.89 "Hg5 mi
4:50 AM61 °FLight rain. Mostly cloudy.5 mph100%29.89 "Hg6 mi
4:20 AM61 °FRain. Mostly cloudy.5 mph100%29.86 "Hg4 mi
3:50 AM61 °FRain. Mostly cloudy.3 mph100%29.86 "Hg4 mi
3:20 AM61 °FRain. Partly cloudy.3 mph100%29.86 "Hg4 mi
2:50 AM63 °FLight rain. Passing clouds.2 mph94%29.83 "HgN/A
2:20 AM63 °FLight rain. Passing clouds.3 mph94%29.83 "HgN/A
1:50 AM63 °FLight rain. Passing clouds.1 mph94%29.83 "HgN/A
1:20 AM63 °FLight rain. Overcast.2 mph88%29.86 "HgN/A
12:50 AM63 °FLight rain. Mostly cloudy.3 mph94%29.86 "HgN/A
12:20 AM63 °FLight rain. Mostly cloudy.6 mph94%29.86 "HgN/A
11:50 PM
Thu, Aug 27
63 °FLight rain. Clear.6 mph88%29.86 "HgN/A
11:20 PM63 °FPassing clouds.8 mph88%29.86 "HgN/A
10:50 PM64 °FPassing clouds.9 mph78%29.83 "HgN/A
10:20 PM66 °FPassing clouds.9 mph73%29.83 "HgN/A
9:50 PM66 °FLight rain. Clear.9 mph78%29.83 "HgN/A
9:20 PM68 °FLight rain. Clear.8 mph78%29.80 "HgN/A
8:50 PM72 °FLight rain. Clear.5 mph61%29.80 "HgN/A
8:20 PM73 °FPassing clouds.3 mph57%29.80 "HgN/A
7:50 PM73 °FLight rain. Clear.7 mph57%29.80 "HgN/A
7:20 PM73 °FLight rain. Clear.2 mph57%29.80 "HgN/A
6:50 PM75 °FPassing clouds.3 mph54%29.83 "HgN/A
6:20 PM75 °FPassing clouds.3 mph54%29.83 "HgN/A
5:50 PM75 °FPassing clouds.3 mph50%29.83 "HgN/A
5:20 PM75 °FSunny.2 mph50%29.83 "Hg10 mi
4:50 PM75 °FPassing clouds.3 mph50%29.86 "HgN/A
4:20 PM75 °FPassing clouds.3 mph50%29.86 "HgN/A
3:50 PM75 °FPassing clouds.3 mph50%29.86 "HgN/A
3:20 PM77 °FPassing clouds.6 mph47%29.86 "HgN/A
2:50 PM77 °FPassing clouds.8 mph47%29.89 "HgN/A
2:20 PM77 °FPassing clouds.10 mph47%29.89 "HgN/A
1:50 PM79 °FSunny.10 mph45%29.89 "Hg10 mi
1:20 PM81 °FPassing clouds.12 mph42%29.86 "HgN/A
12:50 PM82 °FPassing clouds.13 mph35%29.86 "HgN/A
12:20 PM81 °FPassing clouds.10 mph37%29.86 "HgN/A
Weather by CustomWeather, © 2015

See weather overviewHow to use our weather pages